Weather History for KHBG - April, 2014

Change the Weather History Date:

Thursday, April 17, 2014

  Actual Average Record
Temperature  
Mean Temperature 55 °F 66 °F  
Max Temperature 68 °F 78 °F 90 °F (2006)
Min Temperature 41 °F 53 °F 33 °F (1951)
Degree Days  
Heating Degree Days 10 2  
Month to date heating degree days 65 65  
Since 1 July heating degree days 2260 1960  
Cooling Degree Days 0 3  
Month to date cooling degree days 30 41  
Year to date cooling degree days 56 89  
Growing Degree Days 4 (Base 50)    
Moisture  
Dew Point 50 °F    
Average Humidity 82    
Maximum Humidity 100    
Minimum Humidity 63    
Precipitation  
Precipitation T in 0.16 in 1.72 in (1973)
Month to date precipitation 3.98 2.99  
Year to date precipitation 20.25 19.62  
Sea Level Pressure  
Sea Level Pressure 30.20 in    
Wind  
Wind Speed 4 mph (ENE)    
Max Wind Speed 10 mph    
Max Gust Speed 15 mph    
Visibility 9 miles    
Events      
T = Trace of Precipitation, MM = Missing Value Source: NWS Daily Summary

Daily Weather History Graph

Daily Weather History Graph

Search for Another Location

Airport or City:

Trip Planner

Search our weather history database for the weather conditions in past years. The results will help you decide how hot, cold, wet, or windy it might be!

Date:

Astronomy

Apr. 17, 2014 Rise Set
Actual Time 6:26 AM CDT 7:26 PM CDT
Civil Twilight 6:01 AM CDT 7:51 PM CDT
Nautical Twilight 5:32 AM CDT 8:21 PM CDT
Astronomical Twilight 5:01 AM CDT 8:52 PM CDT
Moon 10:04 PM CDT (4/17) 8:05 AM CDT (4/17)
Length of Visible Light 13h 50m
Length of Day
13h 00m
Waning Gibbous, 93% of the Moon is Illuminated
Apr 17
Waning Gibbous
Apr 22
Last Quarter
Apr 29
New
May 6
First Quarter
May 14
Full

Hourly Weather History & Observations

Time (CDT) Temp. Windchill Dew Point Humidity Pressure Visibility Wind Dir Wind Speed Gust Speed Precip Events Conditions
12:53 AM 44.1 °F - 43.0 °F 96% 30.18 in 10.0 mi Calm Calm - N/A   Clear
1:53 AM 43.0 °F - 42.1 °F 97% 30.18 in 10.0 mi Calm Calm - N/A   Clear
2:53 AM 43.0 °F - 41.0 °F 93% 30.19 in 10.0 mi Calm Calm - N/A   Clear
3:53 AM 42.1 °F - 41.0 °F 96% 30.19 in 7.0 mi Calm Calm - N/A   Clear
4:53 AM 43.0 °F - 42.1 °F 97% 30.19 in 7.0 mi Calm Calm - N/A   Overcast
5:53 AM 46.0 °F 44.8 °F 44.1 °F 93% 30.20 in 9.0 mi WNW 3.5 mph - N/A   Overcast
6:53 AM 48.9 °F - 46.0 °F 90% 30.22 in 10.0 mi NNE 3.5 mph - N/A   Overcast
7:53 AM 50.0 °F - 46.0 °F 86% 30.24 in 10.0 mi NE 4.6 mph - N/A   Overcast
8:53 AM 52.0 °F - 46.9 °F 83% 30.25 in 10.0 mi East 4.6 mph - N/A   Overcast
9:53 AM 55.9 °F - 48.9 °F 77% 30.25 in 10.0 mi ESE 6.9 mph - N/A   Overcast
12:53 PM 64.9 °F - 53.1 °F 65% 30.24 in 10.0 mi ENE 6.9 mph - N/A   Overcast
1:53 PM 66.0 °F - 53.1 °F 63% 30.22 in 10.0 mi ENE 6.9 mph - N/A   Overcast
2:53 PM 66.9 °F - 54.0 °F 63% 30.19 in 10.0 mi ENE 10.4 mph - N/A   Mostly Cloudy
3:53 PM 66.0 °F - 54.0 °F 65% 30.19 in 10.0 mi ENE 5.8 mph - N/A   Overcast
4:53 PM 66.0 °F - 55.0 °F 68% 30.19 in 10.0 mi East 5.8 mph - N/A   Overcast
5:53 PM 64.9 °F - 55.9 °F 73% 30.18 in 5.0 mi Calm Calm - N/A   Haze
6:53 PM 63.0 °F - 55.9 °F 78% 30.18 in 4.0 mi North 4.6 mph - N/A   Haze
7:53 PM 62.1 °F - 55.9 °F 80% 30.17 in 8.0 mi NE 3.5 mph - N/A   Clear
8:53 PM 62.1 °F - 55.0 °F 78% 30.17 in 10.0 mi East 5.8 mph - N/A   Partly Cloudy
9:53 PM 62.1 °F - 54.0 °F 75% 30.17 in 10.0 mi ENE 4.6 mph - 0.00 in   Mostly Cloudy
10:53 PM 62.1 °F - 54.0 °F 75% 30.18 in 10.0 mi ENE 3.5 mph - 0.00 in   Partly Cloudy
11:53 PM 60.1 °F - 54.0 °F 80% 30.18 in 10.0 mi East 4.6 mph - 0.00 in   Overcast